Location: Brno
(49.2000°N, 16.6330°E)
Time: 10:46:01
(UTC+02:00)

ISS - Pass Details

Date: 20 May 2021
Orbit: 417 x 422 km, 51.6° (Epoch: 13 June)

Event Time Altitude Azimuth Distance (km) Brightness Sun altitude
Rises 22:55:40 0° 278° (W) 2,366 0.6 -16.1°
Reaches altitude 10° 22:57:47 10° 283° (WNW) 1,502 -0.4 -16.3°
Maximum altitude 23:01:07 54° 2° (N) 518 -3.0 -16.5°
Enters shadow 23:04:20 11° 81° (E) 1,469 -1.2 -16.8°
